This is the latest recevied weather packets stored in our database for station/object N7NIP. If no packets are shown the sender has not sent any weather packets the latest 10 day(s).
| Time | Temp. | Humidity | Pressure | Rain* | Wind** | Luminosity | Snow |
|---|---|---|---|---|---|---|---|
| 1777496462 | 17.78° C | 63% | 1037.6 hPa | 0 mm | - | 895 W/m² | - |
| 1777496159 | 17.22° C | 58% | 1037.5 hPa | 0 mm | - | 898 W/m² | - |
| 1777495855 | 17.22° C | 58% | 1037.5 hPa | 0 mm | - | 903 W/m² | - |
| 1777495550 | 17.22° C | 59% | 1037.5 hPa | 0 mm | - | 906 W/m² | - |
| 1777495246 | 17.22° C | 62% | 1037.8 hPa | 0 mm | - | 908 W/m² | - |
| 1777494944 | 17.22° C | 63% | 1037.7 hPa | 0 mm | - | 912 W/m² | - |
| 1777494642 | 17.22° C | 65% | 1037.7 hPa | 0 mm | - | 911 W/m² | - |
| 1777494339 | 17.22° C | 62% | 1037.3 hPa | 0 mm | - | 911 W/m² | - |
| 1777494035 | 16.67° C | 61% | 1037.7 hPa | 0 mm | - | 908 W/m² | - |
| 1777493733 | 17.22° C | 63% | 1037.9 hPa | 0 mm | - | 911 W/m² | - |
| 1777493431 | 16.67° C | 65% | 1037.9 hPa | 0 mm | - | 906 W/m² | - |
| 1777493126 | 16.67° C | 63% | 1038 hPa | 0 mm | - | 908 W/m² | - |
| 1777492824 | 16.67° C | 65% | 1037.7 hPa | 0 mm | - | 906 W/m² | - |
| 1777492520 | 16.11° C | 62% | 1037.8 hPa | 0 mm | - | 906 W/m² | - |
| 1777492216 | 16.67° C | 63% | 1037.9 hPa | 0 mm | - | 905 W/m² | - |
| 1777491913 | 16.67° C | 65% | 1037.9 hPa | 0 mm | - | 903 W/m² | - |
| 1777491609 | 16.11° C | 62% | 1038 hPa | 0 mm | - | 904 W/m² | - |
| 1777491307 | 16.11° C | 62% | 1038.1 hPa | 0 mm | - | 905 W/m² | - |
| 1777491004 | 16.11° C | 62% | 1038.1 hPa | 0 mm | - | 902 W/m² | - |
| 1777490699 | 16.67° C | 61% | 1038.2 hPa | 0 mm | - | 897 W/m² | - |
| 1777490395 | 16.11° C | 64% | 1038.1 hPa | 0 mm | - | 896 W/m² | - |
| 1777490093 | 15.56° C | 64% | 1038.2 hPa | 0 mm | - | 891 W/m² | - |
| 1777489790 | 15.56° C | 61% | 1038.5 hPa | 0 mm | - | 886 W/m² | - |
| 1777489488 | 15.56° C | 65% | 1038.3 hPa | 0 mm | - | 880 W/m² | - |
| 1777489184 | 15.56° C | 64% | 1038.4 hPa | 0 mm | - | 877 W/m² | - |
* Rain latest hour (hover to see other rain measurements)
** Current wind speed in m/s (hover to see current wind gust speed)